Погода в Палью

Россия / Республика Коми     62°30′43″N   56°52′16″E
темп.,
°C
ветер,
м/с
пор.,
м/с
влажн.,
%
обл.,
%
осадки,
мм/ч
давл.,
гПа
погр.,
м
2 марта, вт
вт200:00−10ююз51294100 1.4 998678
03:00−10ю51194100 2.8 996670
06:00−11ю41094100 0.8 992590
09:00−10ю4994100 1.4 991569
12:00−8ю4793100 0.7 990616
15:00−8ююв3794100 1.1 990571
18:00−10юв3795100 0.5 990351
21:00−11юв2696100 0.9 990233
3 марта, ср
ср300:00−11в1397100 0.4 989111
03:00−12всв1197100 0.8 99022
06:00−12с1197100 0.3 99021
09:00−10з0195100 0.4 991167
12:00−6зюз1392100 0.3 991379
15:00−5зюз3693100 0.6 992568
18:00−8юз389695 0.2 991235
21:00−7юз389696 0.4 992280
4 марта, чт
чт400:00−8зюз279699 0.2 991240
03:00−10юз2697100 0.3 991154
06:00−11юз239696 0.1 99084
09:00−8ююз139598 0.2 991225
12:00−6ююз2492100 0.2 990547
15:00−6юз2491100 0.3 991557
18:00−9ююз129797 0.1 99121
21:00−10ююз129698 0.1 99221
5 марта, пт
пт500:00−11ю119796 0.1 99221
03:00−12ююз019797 0.2 99321
06:00−14зсз119792 0.1 99420
09:00−11ссз129695 0.1 995185
12:00−8ссз229399 0.1 996363
15:00−9сз249499 0.2 998413
18:00−13ссз259792 0.1 999133
21:00−17ссз239889 0.1 100176
6 марта, сб
сб600:00−21сз229991 0.0 100320
03:00−21зсз129989 0.1 100470
06:00−21з119991 0.1 100523
09:00−18зюз129396 0.3 1005327
12:00−15зюз2390100 0.1 1006600
15:00−15зюз2490100 0.3 1006653
18:00−17зюз2796100 0.1 1006296
21:00−22зюз239788 0.1 100627